Weather History for Jacksonville, IL

Change the Weather History Date:

Saturday, January 18, 2014

  Actual Average (KSPI) Record (KSPI)
Temperature  
Mean Temperature 24 °F 26 °F  
Max Temperature 35 °F 35 °F 62 °F (1880)
Min Temperature 13 °F 18 °F -18 °F (1930)
Degree Days  
Heating Degree Days 41 39  
Month to date heating degree days 691  
Since 1 July heating degree days 2831  
Cooling Degree Days 0 0  
Month to date cooling degree days 0  
Year to date cooling degree days 0  
Moisture  
Dew Point 20 °F    
Average Humidity 80    
Maximum Humidity 96    
Minimum Humidity 52    
Precipitation  
Precipitation 0.00 in 0.06 in 1.74 in (1907)
Month to date precipitation 1.11  
Year to date precipitation 1.11  
Snow  
Snow 0.00 in 0.20 in 3.50 in (1886)
Month to date snowfall 3.7  
Since 1 July snowfall 9.9  
Snow Depth -    
Sea Level Pressure  
Sea Level Pressure 29.81 in    
Wind  
Wind Speed 10 mph (SW)    
Max Wind Speed 23 mph    
Max Gust Speed 28 mph    
Visibility 9 miles    
Events Rain , Snow    
T = Trace of Precipitation, MM = Missing Value Source: NWS Daily Summary

Daily Weather History Graph

Daily Weather History Graph

Search for Another Location

Airport:

Trip Planner

Search our weather history database for the weather conditions in past years. The results will help you decide how hot, cold, wet, or windy it might be!

Date:

Astronomy

Jan. 18, 2014 Rise Set
Actual Time 7:19 AM CST 5:04 PM CST
Civil Twilight 6:49 AM CST 5:33 PM CST
Nautical Twilight 6:16 AM CST 6:06 PM CST
Astronomical Twilight 5:44 AM CST 6:39 PM CST
Moon 7:45 PM CST (1/18) 8:19 AM CST (1/18)
Length of Visible Light 10h 44m
Length of Day
9h 45m
Waning Gibbous, 94% of the Moon is Illuminated
Jan 18
Waning Gibbous
Jan 23
Last Quarter
Jan 30
New
Feb 6
First Quarter
Feb 14
Full

Hourly Weather History & Observations

Time (CST) Temp. Windchill Dew Point Humidity Pressure Visibility Wind Dir Wind Speed Gust Speed Precip Events Conditions
12:15 AM 15.6 °F 4.9 °F 10.0 °F 79% 30.04 in 10.0 mi WSW 8.1 mph - N/A   Clear
12:35 AM 14.9 °F 5.0 °F 9.5 °F 79% 30.03 in 10.0 mi WSW 6.9 mph - N/A   Clear
12:55 AM 14.2 °F 8.4 °F 9.3 °F 81% 30.02 in 10.0 mi SSW 3.5 mph - N/A   Clear
1:15 AM 14.0 °F 5.1 °F 9.3 °F 82% 30.02 in 10.0 mi SSW 5.8 mph - N/A   Clear
1:35 AM 14.7 °F 7.3 °F 9.5 °F 80% 30.01 in 10.0 mi SSW 4.6 mph - N/A   Clear
1:55 AM 14.9 °F 6.1 °F 9.7 °F 80% 30.01 in 10.0 mi SW 5.8 mph - N/A   Clear
2:15 AM 14.9 °F 6.1 °F 10.0 °F 81% 30.00 in 10.0 mi SW 5.8 mph - N/A   Clear
2:35 AM 14.7 °F 5.9 °F 9.5 °F 80% 30.00 in 10.0 mi SSW 5.8 mph - N/A   Clear
2:55 AM 13.8 °F 4.9 °F 9.1 °F 82% 30.00 in 10.0 mi South 5.8 mph - N/A   Clear
3:15 AM 13.1 °F 4.0 °F 8.8 °F 83% 29.98 in 10.0 mi SSE 5.8 mph - N/A   Clear
3:35 AM 14.0 °F 3.9 °F 9.5 °F 82% 29.97 in 10.0 mi South 6.9 mph - N/A   Clear
3:55 AM 14.4 °F 3.3 °F 9.5 °F 81% 29.95 in 10.0 mi SSE 8.1 mph - N/A   Clear
4:15 AM 14.7 °F 3.8 °F 9.5 °F 80% 29.94 in 10.0 mi SSE 8.1 mph - N/A   Scattered Clouds
4:35 AM 15.8 °F 6.1 °F 10.6 °F 80% 29.93 in 10.0 mi SSE 6.9 mph - N/A   Mostly Cloudy
4:55 AM 16.7 °F 6.2 °F 11.1 °F 79% 29.93 in 10.0 mi South 8.1 mph - N/A   Overcast
5:15 AM 17.6 °F 6.4 °F 11.7 °F 78% 29.92 in 10.0 mi South 9.2 mph - N/A   Overcast
5:35 AM 18.3 °F 7.3 °F 11.7 °F 75% 29.90 in 10.0 mi South 9.2 mph - N/A   Overcast
5:55 AM 19.0 °F 6.1 °F 12.2 °F 75% 29.89 in 10.0 mi South 12.7 mph - N/A   Overcast
6:15 AM 19.4 °F 7.9 °F 12.2 °F 74% 29.87 in 10.0 mi SSE 10.4 mph - N/A   Overcast
6:35 AM 20.3 °F 7.7 °F 12.4 °F 71% 29.86 in 10.0 mi SSE 12.7 mph - N/A   Overcast
6:55 AM 21.2 °F 8.3 °F 12.6 °F 69% 29.84 in 10.0 mi South 13.8 mph 18.4 mph N/A   Overcast
7:15 AM 21.7 °F 8.0 °F 12.9 °F 69% 29.81 in 10.0 mi SSE 16.1 mph 19.6 mph N/A   Overcast
7:35 AM 22.5 °F 8.9 °F 12.9 °F 67% 29.78 in 10.0 mi SSE 16.1 mph 24.2 mph N/A   Overcast
7:55 AM 23.0 °F 9.2 °F 12.9 °F 65% 29.75 in 10.0 mi SE 17.3 mph 23.0 mph N/A   Overcast
8:15 AM 23.5 °F 9.0 °F 12.9 °F 64% 29.72 in 10.0 mi SE 19.6 mph 25.3 mph N/A   Overcast
8:35 AM 24.4 °F 12.4 °F 12.0 °F 59% 29.72 in 10.0 mi SSE 13.8 mph 23.0 mph N/A   Overcast
8:55 AM 25.2 °F 12.9 °F 12.2 °F 58% 29.71 in 10.0 mi SSE 15.0 mph 23.0 mph N/A   Overcast
9:15 AM 26.4 °F 16.0 °F 11.8 °F 54% 29.70 in 10.0 mi SE 11.5 mph 17.3 mph N/A   Mostly Cloudy
9:35 AM 27.5 °F 15.9 °F 12.0 °F 52% 29.70 in 10.0 mi South 15.0 mph 19.6 mph N/A   Scattered Clouds
9:55 AM 28.0 °F 16.1 °F 13.5 °F 54% 29.70 in 10.0 mi South 16.1 mph 20.7 mph N/A   Scattered Clouds
10:15 AM 28.4 °F 18.0 °F 14.2 °F 55% 29.70 in 10.0 mi South 12.7 mph 23.0 mph N/A   Mostly Cloudy
10:35 AM 28.4 °F 16.6 °F 14.7 °F 57% 29.69 in 10.0 mi South 16.1 mph 20.7 mph N/A   Mostly Cloudy
10:55 AM 29.1 °F 17.9 °F 15.6 °F 57% 29.68 in 10.0 mi South 15.0 mph - N/A   Overcast
11:15 AM 29.1 °F 18.4 °F 17.6 °F 62% 29.68 in 4.0 mi South 13.8 mph 19.6 mph N/A Snow Light Snow
11:35 AM 28.4 °F 18.0 °F 23.0 °F 80% 29.66 in 1.0 mi SSW 12.7 mph - N/A Snow Light Snow
11:55 AM 28.0 °F 18.6 °F 23.9 °F 84% 29.65 in 1.8 mi SSW 10.4 mph - N/A Snow Light Snow
12:15 PM 28.2 °F 18.9 °F 24.3 °F 85% 29.63 in 7.0 mi South 10.4 mph - N/A Snow Light Snow
12:35 PM 28.9 °F 20.4 °F 24.8 °F 84% 29.63 in 10.0 mi SSW 9.2 mph - N/A   Overcast
12:55 PM 30.2 °F 21.3 °F 26.6 °F 86% 29.62 in 7.0 mi SSW 10.4 mph - N/A   Overcast
1:15 PM 31.1 °F 22.4 °F 27.1 °F 85% 29.62 in 10.0 mi SSW 10.4 mph - N/A   Overcast
1:35 PM 32.0 °F 23.6 °F 28.2 °F 86% 29.61 in 4.0 mi SW 10.4 mph - N/A Snow Light Snow
1:55 PM 32.2 °F 23.2 °F 28.4 °F 86% 29.62 in 10.0 mi SW 11.5 mph - N/A Snow Light Snow
2:15 PM 32.9 °F 25.3 °F 29.1 °F 86% 29.62 in 10.0 mi SSW 9.2 mph - N/A Snow Light Snow
2:35 PM 34.0 °F 26.6 °F 29.5 °F 84% 29.63 in 10.0 mi SW 9.2 mph - N/A   Overcast
2:55 PM 34.7 °F 27.5 °F 29.8 °F 82% 29.64 in 10.0 mi SW 9.2 mph - N/A   Light Drizzle
3:15 PM 34.3 °F 27.0 °F 31.3 °F 89% 29.65 in 3.0 mi WSW 9.2 mph - N/A Snow Light Snow
3:35 PM 33.8 °F 26.4 °F 32.0 °F 93% 29.66 in 4.0 mi WSW 9.2 mph - N/A Snow Light Snow
3:55 PM 34.2 °F 27.5 °F 32.7 °F 94% 29.67 in 5.0 mi WSW 8.1 mph - N/A Rain Light Rain
4:15 PM 34.7 °F 28.8 °F 32.4 °F 91% 29.68 in 10.0 mi West 6.9 mph - N/A   Overcast
4:35 PM 35.1 °F 27.9 °F 32.0 °F 89% 29.69 in 7.0 mi West 9.2 mph - N/A Rain Light Rain
4:55 PM 34.2 °F 30.0 °F 32.0 °F 92% 29.70 in 4.0 mi WSW 4.6 mph - N/A Rain Light Rain
5:15 PM 33.8 °F 29.6 °F 32.0 °F 93% 29.71 in 10.0 mi West 4.6 mph - N/A Rain Light Rain
5:35 PM 33.8 °F 29.6 °F 32.2 °F 94% 29.72 in 10.0 mi WSW 4.6 mph - N/A Rain Light Rain
5:55 PM 33.8 °F 29.6 °F 32.4 °F 94% 29.73 in 10.0 mi WSW 4.6 mph - N/A Rain Rain
6:15 PM 34.2 °F 26.2 °F 32.9 °F 95% 29.75 in 7.0 mi West 10.4 mph - N/A Rain Light Rain
6:35 PM 34.2 °F 24.4 °F 32.9 °F 95% 29.76 in 3.0 mi West 15.0 mph - N/A Rain Rain
6:55 PM 33.1 °F 23.0 °F 32.0 °F 96% 29.78 in 5.0 mi NNW 15.0 mph 24.2 mph N/A   Drizzle
7:15 PM 32.0 °F 20.5 °F 31.1 °F 96% 29.80 in 7.0 mi NNW 18.4 mph - N/A   Overcast
7:35 PM 32.0 °F 19.8 °F 29.8 °F 92% 29.82 in 10.0 mi NNW 20.7 mph 26.5 mph N/A   Overcast
7:55 PM 30.4 °F 17.0 °F 27.0 °F 87% 29.84 in 10.0 mi NNW 23.0 mph - N/A   Overcast
8:15 PM 29.3 °F 16.2 °F 25.5 °F 86% 29.86 in 10.0 mi NW 20.7 mph 26.5 mph N/A   Overcast
8:35 PM 27.5 °F 14.6 °F 24.3 °F 88% 29.88 in 10.0 mi NNW 18.4 mph 23.0 mph N/A   Overcast
8:55 PM 27.0 °F 13.9 °F 23.0 °F 85% 29.89 in 10.0 mi NW 18.4 mph 24.2 mph N/A   Overcast
9:15 PM 25.5 °F 12.4 °F 21.6 °F 85% 29.92 in 10.0 mi NW 17.3 mph 24.2 mph N/A   Overcast
9:35 PM 24.1 °F 9.8 °F 20.3 °F 85% 29.93 in 10.0 mi NW 19.6 mph 27.6 mph N/A   Overcast
9:55 PM 23.9 °F 9.5 °F 19.9 °F 85% 29.94 in 10.0 mi NW 19.6 mph 24.2 mph N/A   Overcast
10:15 PM 23.9 °F 9.1 °F 19.6 °F 84% 29.96 in 10.0 mi NW 20.7 mph 25.3 mph N/A   Overcast
10:35 PM 23.7 °F 10.1 °F 19.0 °F 82% 29.97 in 10.0 mi NW 17.3 mph - N/A   Overcast
10:55 PM 23.7 °F 11.0 °F 18.9 °F 82% 29.98 in 10.0 mi NW 15.0 mph - N/A   Overcast
11:15 PM 23.4 °F 10.6 °F 18.5 °F 82% 29.98 in 10.0 mi NW 15.0 mph 23.0 mph N/A   Overcast
11:35 PM 23.0 °F 11.1 °F 18.1 °F 82% 29.98 in 10.0 mi NW 12.7 mph - N/A   Overcast
11:55 PM 22.8 °F 11.5 °F 18.0 °F 82% 29.98 in 10.0 mi WNW 11.5 mph - N/A   Overcast